{"data":{"norad_id":68819,"intl_designator":"2026-089T","name":"STARLINK-37409","alt_names":[],"object_type":"PAYLOAD","status":"ACTIVE","operator":null,"country":"US","launch_date":"2026-04-23","launch_site_code":"AFWTR","launch_vehicle":null,"mission":null,"orbit_class":"UNKNOWN","rcs_meters":null,"size_class":null,"mass_kg":null,"dimensions":null,"purposes":["comms"],"wikipedia_slug":null,"has_3d_model":false,"image_url":null,"decayed_at":null,"tle_current":{"epoch":"2026-09-19T08:15:31.805568Z","epoch_age_seconds":139982,"freshness":"FRESH","line1":"1 68819U 26089T   26262.34411812  .00011088  00000+0  34511-3 0  9993","line2":"2 68819  97.2869 108.1493 0001415  94.3378 265.8027 15.33461040 23086","mean_motion":15.3346104,"eccentricity":0.0001415,"inclination_deg":97.2869,"raan_deg":108.1493,"arg_perigee_deg":94.3378,"mean_anomaly_deg":265.8027,"bstar":0.00034511,"rev_number":2308,"period_min":93.905222398086,"perigee_km":464.52707714739,"apogee_km":466.46382513106,"semimajor_km":6843.6324511392,"source":"CELESTRAK","updated_at":"2026-09-20T09:00:44.010730Z"}}}